sat.trackr.live / text

‹ back to catalog

STARLINK-4046

NORAD 52842 · 2022-062N

PAYLOAD ACTIVE UNKNOWN

§ Identity

Operator
Country
US
Launch date
2022-06-17
Launch site
AFETR
Launch vehicle
Mass (kg)
RCS (m²)

Purposes: comms

External: N2YO · Heavens-Above · Gunter

§ Orbital elements

Epoch: 2026-05-25T02:49:15.458592Z

Period
95.44 min
Inclination
53.2137°
Eccentricity
0.0001633
Mean motion
15.08837597 rev/d
Perigee alt
538.6 km
Apogee alt
540.9 km
Semi-major
6,917.9 km
B*
5.5199e-5
RAAN
50.9463°
Arg perigee
83.9358°
Mean anomaly
276.1820°
Rev number
21,732

§ Raw data

STARLINK-40461 52842U 22062N   26145.11754003  .00000591  00000+0  55199-4 0  99992 52842  53.2137  50.9463 0001633  83.9358 276.1820 15.08837597217324

JSON: /api/v1/satellites/52842 · /tle

For live sub-satellite position, see the globe view (requires WebGL).

§ Visibility from observer

Set your observer location to see the next 7 days of passes ≥ 10°. The values pass through the URL so the page stays shareable.

No JS? Fill the form by hand. The geolocation button needs JavaScript.